Content
SEND FEEDBACK

Daily
Averages
Monthly
Summary
United States of America

RAPID CITY, SOUTH DAKOTA


Home > North America > United States > South Dakota
Elevation: 3162 feet     Latitude: 44 03N     Longitude: 103 04W

WEATHER
 
SELECT A DAY
Number of Records: 205,181;   Date Range: 1/1/95 - 12/24/14
 
SHARE

PRINT THIS DATA

[ ← Previous Day ]
WEATHER ALMANAC - AUGUST 18, 2014
[ Next Day → ]
[ °C ]   °F
Weather ElementAverageHighLow
Temperature69 °F82 °F (3:52 pm)55.9 °F (4:52 am)
Dewpoint54.6 °F57.9 °F (4:52 pm)52 °F (3:52 pm)
Humidity64.1 %97 % (4:03 am)35 % (4:52 pm)
Barometer29.91 in30.01 in (3:32 am)29.84 in (7:52 pm)
Wind Speed12.3 mph26.5 mph (11:52 am)
Wind Gust33.4 mph (10:52 am)
Weather ElementAverage
Visibility10 mi
Wind DirectionWSW (260 °)

Weather ElementTotal
Precipitation---
Cooling Degree Days4 (Base 65)
Growing Degree Days19 (Base 50)
Averaged from 24 records on August 18, 2014
WEATHER CONDITIONS BREAKOUT
WIND DIRECTION BREAKOUT
WEATHER BY HOUR - AUGUST 18, 2014
[ °C ]   °F
Local TimeTemperatureDewpointHumidityBarometerVisibilityWind DirectionWind SpeedGust SpeedPrecipitationEventsConditions
12:52 AM60.8 °F57.2 °F88 %30.01 in10.0 miSSE (160°)3.5 mphClear
1:52 AM59.0 °F57.9 °F96 %29.94 in10.0 miWSW (250°)3.5 mphClear
2:52 AM57.9 °F55.9 °F93 %29.96 in10.0 miCalmClear
3:52 AM57.9 °F55.9 °F93 %29.96 in10.0 miSSE (160°)3.5 mphClear
4:52 AM55.9 °F55.0 °F97 %29.94 in10.0 miNW (310°)4.6 mphClear
5:52 AM59.0 °F53.1 °F81 %29.94 in10.0 miNW (310°)11.5 mphClear
6:52 AM61.0 °F54.0 °F78 %29.93 in10.0 miNW (310°)9.2 mphPartly Cloudy
7:52 AM68.0 °F54.0 °F61 %29.93 in10.0 miNW (310°)10.4 mphClear
8:52 AM72.0 °F55.9 °F57 %29.93 in10.0 miNNW (340°)20.7 mph25.3 mphClear
9:52 AM73.9 °F55.0 °F52 %29.93 in10.0 miNNW (340°)20.7 mph29.9 mphClear
10:52 AM75.9 °F55.9 °F50 %29.92 in10.0 miNNW (340°)25.3 mph33.4 mphClear
11:52 AM78.1 °F55.0 °F45 %29.90 in10.0 miNNW (330°)26.5 mph33.4 mphClear
12:52 PM79.0 °F55.0 °F44 %29.90 in10.0 miNorth (360°)23.0 mph29.9 mphClear
1:52 PM81.0 °F55.0 °F41 %29.88 in10.0 miNorth (350°)21.9 mph31.1 mphClear
2:52 PM82.0 °F53.1 °F37 %29.87 in10.0 miNorth (350°)24.2 mph32.2 mphClear
3:52 PM82.0 °F53.1 °F37 %29.86 in10.0 miNorth (350°)23.0 mph32.2 mphClear
4:52 PM82.0 °F52.0 °F35 %29.85 in10.0 miNorth (350°)18.4 mph28.8 mphClear
5:52 PM80.1 °F52.0 °F38 %29.84 in10.0 miNorth (360°)15.0 mphClear
6:52 PM77.0 °F55.0 °F47 %29.85 in10.0 miENE (70°)3.5 mphClear
7:52 PM68.0 °F55.9 °F65 %29.87 in10.0 miNE (40°)5.8 mphClear
8:52 PM66.0 °F54.0 °F65 %29.87 in10.0 miENE (60°)9.2 mphClear
9:52 PM62.6 °F53.6 °F72 %29.95 in10.0 miSSW (210°)3.5 mphClear
10:52 PM60.1 °F54.0 °F80 %29.88 in10.0 miWNW (290°)4.6 mphClear
11:52 PM57.9 °F54.0 °F87 %29.88 in10.0 miWNW (290°)4.6 mphClear
Hourly data recorded from KRAP, located miles away from Rapid City, South Dakota







STORIES FROM OUR PARTNERS